User: anonymous   Login
Location: Theydon Bois
(51.6750°N, 0.1050°E)
Time: 18:33:01
(UTC+01:00)
Language:

CZ-3A R/B - Orbit

View from above orbital plane
View from above orbital plane
View from above satellite
View from above satellite

Ground track
Ground track

The orbit data is extracted from the following two-line orbital elements,

1 37385U 11013B   18167.24337689 -.00000044 +00000-0 -46742-2 0  9992
2 37385 055.5481 147.0502 6556864 180.7644 177.4219 02.63324490068036
Epoch (UTC): 16 June 2018 05:50:27
Eccentricity: 0.6556864
inclination: 55.5481°
perigee height: 1249 km
apogee height: 30298 km
right ascension of ascending node: 147.0502°
argument of perigee: 180.7644°
revolutions per day: 2.63324490
mean anomaly at epoch: 177.4219°
orbit number at epoch: 6803

The dashed part of the orbit path shows where the satellite is in the earth's shadow,  

DLR